�������l�o���
Date,Time,MP-1(��Sv/h),MP-2(��Sv/h),MP-3(��Sv/h),MP-4(��Sv/h),MP-5(��Sv/h),MP-6(��Sv/h),MP-7(��Sv/h),MP-8(��Sv/h),����,����(m/s),���J
2023/06/30,00:00,0.512,0.783,0.481,0.928,0.678,0.321,0.561,0.528,��,3.4,��
2023/06/30,00:10,0.513,0.780,0.482,0.930,0.676,0.320,0.560,0.527,��,1.9,��
2023/06/30,00:20,0.513,0.782,0.483,0.929,0.675,0.319,0.559,0.527,�쐼,2.0,��
2023/06/30,00:30,0.514,0.782,0.482,0.930,0.677,0.321,0.561,0.527,�쐼,2.3,��
2023/06/30,00:40,0.514,0.782,0.481,0.928,0.678,0.320,0.561,0.528,���쐼,2.3,��
2023/06/30,00:50,0.513,0.784,0.482,0.930,0.677,0.320,0.560,0.529,��,1.2,��
2023/06/30,01:00,0.512,0.783,0.481,0.931,0.677,0.320,0.561,0.528,���쐼,0.9,��
2023/06/30,01:10,0.514,0.783,0.482,0.929,0.678,0.321,0.561,0.528,��쐼,1.9,��
2023/06/30,01:20,0.512,0.782,0.481,0.931,0.676,0.320,0.560,0.527,��쐼,3.1,��
2023/06/30,01:30,0.513,0.780,0.481,0.929,0.679,0.321,0.560,0.528,��쐼,3.0,��
2023/06/30,01:40,0.512,0.783,0.481,0.928,0.678,0.322,0.561,0.529,��,2.6,��
2023/06/30,01:50,0.514,0.783,0.482,0.929,0.680,0.321,0.561,0.527,��,3.9,��
2023/06/30,02:00,0.514,0.783,0.480,0.928,0.677,0.321,0.562,0.528,��,3.6,��
2023/06/30,02:10,0.514,0.783,0.482,0.931,0.678,0.321,0.561,0.528,��쐼,3.3,��
2023/06/30,02:20,0.514,0.782,0.482,0.931,0.677,0.321,0.561,0.527,��,3.8,��
2023/06/30,02:30,0.513,0.782,0.480,0.932,0.676,0.321,0.561,0.527,��,5.0,��
2023/06/30,02:40,0.515,0.782,0.482,0.931,0.676,0.321,0.561,0.526,��,4.9,��
2023/06/30,02:50,0.513,0.782,0.482,0.932,0.679,0.322,0.562,0.526,��,5.6,��
2023/06/30,03:00,0.515,0.785,0.482,0.932,0.677,0.321,0.562,0.527,��,4.6,��
2023/06/30,03:10,0.514,0.783,0.481,0.930,0.678,0.321,0.563,0.527,��,5.9,��
2023/06/30,03:20,0.513,0.781,0.482,0.932,0.678,0.322,0.563,0.528,��,5.3,��
2023/06/30,03:30,0.514,0.783,0.482,0.931,0.679,0.320,0.564,0.526,��쐼,3.3,��
2023/06/30,03:40,0.514,0.783,0.482,0.932,0.679,0.322,0.563,0.528,��,3.6,��
2023/06/30,03:50,0.511,0.781,0.483,0.932,0.677,0.322,0.563,0.527,��,4.0,��
2023/06/30,04:00,0.513,0.783,0.482,0.933,0.677,0.322,0.562,0.527,��,2.6,��
2023/06/30,04:10,0.513,0.783,0.482,0.930,0.679,0.321,0.563,0.527,��쓌,2.9,��
2023/06/30,04:20,0.516,0.783,0.481,0.931,0.679,0.322,0.562,0.529,��쓌,3.9,��
2023/06/30,04:30,0.515,0.783,0.481,0.930,0.678,0.322,0.563,0.526,��쓌,2.3,��
2023/06/30,04:40,0.513,0.782,0.482,0.931,0.678,0.321,0.563,0.527,��쓌,1.2,��
2023/06/30,04:50,0.514,0.784,0.483,0.932,0.678,0.321,0.564,0.528,��쐼,1.5,��
2023/06/30,05:00,0.513,0.784,0.481,0.930,0.679,0.321,0.562,0.529,��쐼,4.3,��
2023/06/30,05:10,0.513,0.784,0.482,0.931,0.680,0.320,0.562,0.529,��,4.8,��
2023/06/30,05:20,0.515,0.783,0.482,0.931,0.679,0.321,0.563,0.527,��쐼,4.9,��
2023/06/30,05:30,0.515,0.784,0.483,0.931,0.677,0.321,0.564,0.527,��,4.6,��
2023/06/30,05:40,0.515,0.782,0.483,0.931,0.679,0.321,0.563,0.527,��,5.1,��
2023/06/30,05:50,0.513,0.783,0.481,0.931,0.678,0.320,0.564,0.528,��,5.4,��
2023/06/30,06:00,0.515,0.783,0.481,0.933,0.680,0.319,0.563,0.528,��,4.3,��
2023/06/30,06:10,0.514,0.784,0.481,0.931,0.680,0.320,0.564,0.528,��쓌,4.2,��
2023/06/30,06:20,0.513,0.784,0.482,0.933,0.678,0.321,0.563,0.527,��,4.0,��
2023/06/30,06:30,0.513,0.783,0.480,0.931,0.678,0.321,0.564,0.527,��쓌,4.2,��
2023/06/30,06:40,0.512,0.784,0.480,0.931,0.679,0.321,0.565,0.527,��,4.2,��
2023/06/30,06:50,0.513,0.784,0.481,0.930,0.676,0.321,0.565,0.528,��,4.2,��
2023/06/30,07:00,0.512,0.784,0.480,0.930,0.680,0.319,0.564,0.528,��,4.9,��
2023/06/30,07:10,0.512,0.782,0.483,0.930,0.680,0.319,0.563,0.528,��,5.7,��
2023/06/30,07:20,0.513,0.781,0.480,0.930,0.678,0.319,0.564,0.526,��,6.3,��
2023/06/30,07:30,0.512,0.781,0.481,0.931,0.680,0.320,0.565,0.528,��,5.4,��
2023/06/30,07:40,0.513,0.781,0.482,0.933,0.679,0.320,0.564,0.527,��,4.3,��
2023/06/30,07:50,0.511,0.782,0.483,0.931,0.679,0.320,0.563,0.528,��,4.3,��
2023/06/30,08:00,0.514,0.782,0.482,0.932,0.678,0.319,0.562,0.527,��,3.4,��
2023/06/30,08:10,0.514,0.783,0.482,0.932,0.680,0.319,0.562,0.529,��,3.6,��
2023/06/30,08:20,0.514,0.784,0.482,0.931,0.680,0.321,0.562,0.525,��,5.5,��
2023/06/30,08:30,0.512,0.784,0.483,0.933,0.682,0.319,0.562,0.526,��,6.1,��
2023/06/30,08:40,0.514,0.784,0.482,0.932,0.681,0.319,0.561,0.523,��,6.5,��
2023/06/30,08:50,0.514,0.783,0.482,0.931,0.681,0.321,0.562,0.524,��쓌,6.9,��
2023/06/30,09:00,0.512,0.784,0.481,0.931,0.680,0.319,0.562,0.525,��,6.0,��
2023/06/30,09:10,0.514,0.784,0.483,0.931,0.679,0.318,0.562,0.526,��,4.0,��
2023/06/30,09:20,0.514,0.786,0.482,0.931,0.681,0.319,0.562,0.526,��,3.7,��
2023/06/30,09:30,0.515,0.785,0.482,0.930,0.679,0.321,0.563,0.526,��,4.7,��
2023/06/30,09:40,0.514,0.785,0.482,0.928,0.680,0.321,0.562,0.526,��,5.6,�L
2023/06/30,09:50,0.516,0.785,0.482,0.931,0.682,0.321,0.564,0.525,��,4.8,�L
2023/06/30,10:00,0.514,0.786,0.483,0.934,0.682,0.322,0.562,0.526,��쐼,2.3,�L
2023/06/30,10:10,0.514,0.785,0.485,0.930,0.682,0.323,0.563,0.527,��,2.8,�L
2023/06/30,10:20,0.517,0.784,0.485,0.933,0.682,0.323,0.564,0.528,��,3.9,�L
2023/06/30,10:30,0.517,0.788,0.486,0.936,0.682,0.325,0.565,0.528,��,3.7,�L
2023/06/30,10:40,0.517,0.787,0.484,0.936,0.682,0.327,0.566,0.528,��,3.3,�L
2023/06/30,10:50,0.518,0.786,0.487,0.935,0.683,0.325,0.565,0.530,��쓌,3.3,�L
2023/06/30,11:00,0.517,0.786,0.487,0.935,0.681,0.325,0.564,0.528,��쓌,4.3,�L
2023/06/30,11:10,0.517,0.784,0.485,0.933,0.683,0.324,0.565,0.528,��,3.4,�L
2023/06/30,11:20,0.516,0.785,0.485,0.934,0.682,0.324,0.564,0.530,��,3.8,�L
2023/06/30,11:30,0.517,0.783,0.486,0.934,0.681,0.324,0.564,0.528,��,3.3,�L
2023/06/30,11:40,0.516,0.785,0.484,0.934,0.680,0.322,0.564,0.527,��,3.0,�L
2023/06/30,11:50,0.515,0.785,0.484,0.934,0.682,0.322,0.564,0.527,��쐼,2.3,�L
2023/06/30,12:00,0.514,0.786,0.485,0.933,0.683,0.321,0.564,0.528,�쐼,1.7,�L
2023/06/30,12:10,0.516,0.787,0.485,0.935,0.682,0.322,0.563,0.529,��,1.2,�L
2023/06/30,12:20,0.516,0.784,0.484,0.933,0.680,0.321,0.564,0.529,��,1.9,�L
2023/06/30,12:30,0.517,0.783,0.483,0.933,0.680,0.322,0.563,0.527,��,0.6,�L
2023/06/30,12:40,0.516,0.785,0.483,0.933,0.681,0.320,0.563,0.528,-,CALM,�L
2023/06/30,12:50,0.515,0.783,0.483,0.934,0.681,0.321,0.562,0.528,��,1.1,�L
2023/06/30,13:00,0.516,0.784,0.484,0.932,0.680,0.322,0.563,0.527,��쓌,1.5,�L
2023/06/30,13:10,0.516,0.785,0.484,0.934,0.681,0.320,0.563,0.527,��쓌,3.4,�L
2023/06/30,13:20,0.517,0.782,0.482,0.934,0.681,0.321,0.562,0.528,��쓌,3.2,�L
2023/06/30,13:30,0.516,0.784,0.485,0.933,0.682,0.321,0.561,0.528,��쓌,2.9,�L
2023/06/30,13:40,0.516,0.784,0.481,0.933,0.681,0.322,0.562,0.528,��쓌,4.3,�L
2023/06/30,13:50,0.517,0.782,0.483,0.933,0.680,0.321,0.562,0.529,��쓌,3.1,�L
2023/06/30,14:00,0.516,0.783,0.483,0.933,0.682,0.321,0.562,0.529,��,3.2,�L
2023/06/30,14:10,0.515,0.783,0.482,0.933,0.680,0.322,0.563,0.528,��,2.6,�L
2023/06/30,14:20,0.516,0.783,0.482,0.935,0.682,0.321,0.562,0.528,��,3.1,�L
2023/06/30,14:30,0.515,0.783,0.485,0.932,0.681,0.322,0.562,0.528,��,4.4,�L
2023/06/30,14:40,0.516,0.784,0.484,0.934,0.682,0.322,0.563,0.528,��쓌,5.2,��
2023/06/30,14:50,0.516,0.783,0.483,0.934,0.680,0.323,0.562,0.529,��쓌,6.2,��
2023/06/30,15:00,0.515,0.782,0.483,0.934,0.682,0.322,0.561,0.529,��,5.7,�L
2023/06/30,15:10,0.517,0.784,0.483,0.934,0.682,0.321,0.562,0.527,��,6.6,��
2023/06/30,15:20,0.515,0.783,0.482,0.933,0.683,0.323,0.561,0.526,��,6.0,��
2023/06/30,15:30,0.514,0.783,0.484,0.934,0.680,0.321,0.561,0.526,��,4.4,�L
2023/06/30,15:40,0.515,0.781,0.484,0.933,0.682,0.322,0.562,0.528,��,3.6,�L
2023/06/30,15:50,0.515,0.783,0.483,0.934,0.682,0.322,0.561,0.527,��,4.0,�L
2023/06/30,16:00,0.516,0.783,0.483,0.936,0.682,0.322,0.562,0.527,��,4.9,�L
2023/06/30,16:10,0.517,0.782,0.485,0.933,0.683,0.322,0.564,0.526,��쓌,4.8,��
2023/06/30,16:20,0.516,0.782,0.485,0.934,0.682,0.322,0.563,0.527,��쓌,4.8,��
2023/06/30,16:30,0.514,0.785,0.483,0.934,0.681,0.321,0.562,0.528,��쓌,5.7,��
2023/06/30,16:40,0.515,0.781,0.484,0.935,0.683,0.321,0.562,0.527,��쓌,8.6,��
2023/06/30,16:50,0.515,0.782,0.484,0.934,0.682,0.321,0.563,0.527,��쓌,7.4,��
2023/06/30,17:00,0.513,0.782,0.482,0.933,0.681,0.322,0.563,0.527,��,6.5,��
2023/06/30,17:10,0.514,0.782,0.483,0.932,0.680,0.321,0.562,0.528,��,5.8,�L
2023/06/30,17:20,0.514,0.782,0.483,0.935,0.681,0.321,0.563,0.528,��,5.5,�L
2023/06/30,17:30,0.515,0.780,0.484,0.934,0.681,0.320,0.561,0.529,��,4.3,�L
2023/06/30,17:40,0.516,0.782,0.483,0.935,0.682,0.321,0.563,0.529,��,5.4,��
2023/06/30,17:50,0.515,0.780,0.484,0.932,0.680,0.321,0.563,0.528,��,5.6,�L
2023/06/30,18:00,0.514,0.781,0.485,0.935,0.683,0.322,0.564,0.529,��쐼,4.6,�L
2023/06/30,18:10,0.516,0.783,0.484,0.932,0.683,0.320,0.562,0.528,��,3.9,��
2023/06/30,18:20,0.515,0.784,0.482,0.934,0.682,0.322,0.562,0.529,��쐼,4.0,��
2023/06/30,18:30,0.515,0.781,0.482,0.935,0.680,0.321,0.563,0.529,��,3.4,��
2023/06/30,18:40,0.514,0.785,0.482,0.932,0.682,0.323,0.563,0.529,��,2.2,��
2023/06/30,18:50,0.514,0.783,0.484,0.933,0.682,0.322,0.561,0.529,��쐼,2.0,�L
2023/06/30,19:00,0.516,0.783,0.483,0.931,0.681,0.321,0.563,0.529,��쐼,3.0,�L
2023/06/30,19:10,0.514,0.781,0.483,0.934,0.682,0.322,0.562,0.529,��쐼,3.6,�L
2023/06/30,19:20,0.515,0.785,0.484,0.935,0.681,0.323,0.561,0.528,��쐼,3.4,�L
2023/06/30,19:30,0.516,0.784,0.485,0.935,0.684,0.325,0.563,0.529,��,4.0,�L
2023/06/30,19:40,0.515,0.784,0.485,0.936,0.684,0.324,0.563,0.529,��,4.0,�L
2023/06/30,19:50,0.518,0.784,0.485,0.934,0.682,0.321,0.561,0.527,��,3.3,�L
2023/06/30,20:00,0.515,0.783,0.485,0.936,0.682,0.322,0.562,0.528,��쐼,4.0,��
2023/06/30,20:10,0.515,0.783,0.486,0.934,0.684,0.323,0.562,0.529,��쐼,4.8,�L
2023/06/30,20:20,0.514,0.785,0.484,0.935,0.684,0.324,0.562,0.529,�쐼,4.4,�L
2023/06/30,20:30,0.516,0.783,0.485,0.935,0.683,0.323,0.562,0.529,�쐼,3.8,�L
2023/06/30,20:40,0.515,0.783,0.483,0.935,0.682,0.322,0.560,0.528,��쐼,4.0,�L
2023/06/30,20:50,0.514,0.783,0.483,0.933,0.682,0.323,0.562,0.528,��쐼,4.4,��
2023/06/30,21:00,0.514,0.783,0.484,0.934,0.681,0.322,0.562,0.528,�쐼,4.0,��
2023/06/30,21:10,0.513,0.783,0.483,0.934,0.679,0.322,0.560,0.530,�쐼,2.9,��
2023/06/30,21:20,0.512,0.779,0.483,0.934,0.679,0.321,0.563,0.528,��쐼,2.6,��
2023/06/30,21:30,0.513,0.781,0.483,0.935,0.680,0.322,0.561,0.528,���쐼,3.7,�L
2023/06/30,21:40,0.512,0.781,0.482,0.935,0.681,0.321,0.561,0.529,���쐼,3.0,�L
2023/06/30,21:50,0.513,0.781,0.483,0.935,0.680,0.321,0.563,0.528,�쐼,4.7,�L
2023/06/30,22:00,0.515,0.779,0.483,0.935,0.680,0.321,0.561,0.528,���쐼,3.6,�L
2023/06/30,22:10,0.511,0.780,0.481,0.934,0.679,0.322,0.562,0.528,��,3.0,�L
2023/06/30,22:20,0.514,0.781,0.484,0.933,0.679,0.324,0.562,0.527,�쐼,1.5,�L
2023/06/30,22:30,0.514,0.782,0.484,0.934,0.678,0.323,0.561,0.527,�쐼,1.1,�L
2023/06/30,22:40,0.514,0.780,0.481,0.933,0.682,0.323,0.562,0.528,��,0.8,�L
2023/06/30,22:50,0.513,0.780,0.481,0.935,0.680,0.322,0.561,0.527,��쓌,2.3,�L
2023/06/30,23:00,0.515,0.780,0.483,0.933,0.682,0.323,0.561,0.528,�쐼,2.6,�L
2023/06/30,23:10,0.513,0.780,0.481,0.935,0.682,0.322,0.561,0.527,��쓌,3.7,�L
2023/06/30,23:20,0.514,0.782,0.482,0.934,0.680,0.323,0.561,0.528,��,2.0,�L
2023/06/30,23:30,0.514,0.781,0.482,0.933,0.681,0.323,0.561,0.527,��,2.2,�L
2023/06/30,23:40,0.514,0.780,0.481,0.936,0.683,0.323,0.563,0.529,���쐼,1.2,�L
2023/06/30,23:50,0.514,0.781,0.481,0.935,0.681,0.323,0.560,0.528,�쐼,1.4,��
